QPF
0.01 0.01 0.01 0.01 0.01 0.02 0.03 0.03 0.02 0.01 0.01 0.01 0.01 0.01 0.01 0.01 0.02 0.01 0.01 0.01 0.01 0.00 0.01 0.01 0.01 0.01 0.01 0.01 0.01 0.01 0.01 0.01 0.01 0.03 0.03 0.04 0.03 0.03 0.03 0.02 0.02 0.02 0.02 0.02
0.01 0.01 0.01 0.01 0.01 0.02 0.02 0.02 0.02 0.01 0.01 0.02 0.01 0.01 0.01 0.01 0.01 0.02 0.02 0.02 0.01 0.01 0.00 0.01 0.01 0.01 0.00 0.00 0.01 0.01 0.01 0.01 0.01 0.02 0.03 0.04 0.04 0.03 0.03 0.03 0.02 0.02 0.02 0.02
0.02 0.01 0.01 0.01 0.01 0.01 0.02 0.02 0.01 0.02 0.02 0.02 0.02 0.01 0.01 0.02 0.01 0.02 0.02 0.01 0.01 0.01 0.00 0.00 0.01 0.01 0.01 0.01 0.01 0.01 0.01 0.01 0.01 0.01 0.02 0.03 0.03 0.03 0.03 0.03 0.03 0.02 0.02 0.02
0.03 0.02 0.02 0.01 0.01 0.01 0.02 0.02 0.01 0.01 0.02 0.02 0.02 0.02 0.02 0.01 0.01 0.01 0.01 0.01 0.01 0.01 0.01 0.01 0.01 0.01 0.01 0.01 0.01 0.01 0.01 0.01 0.01 0.01 0.01 0.02 0.03 0.02 0.02 0.02 0.02 0.02 0.02 0.02
0.03 0.02 0.01 0.01 0.01 0.01 0.02 0.02 0.01 0.01 0.01 0.02 0.02 0.02 0.01 0.01 0.01 0.01 0.01 0.01 0.01 0.01 0.01 0.01 0.01 0.01 0.02 0.01 0.01 0.01 0.01 0.01 0.01 0.01 0.01 0.01 0.03 0.03 0.02 0.01 0.01 0.01 0.01 0.01
0.03 0.02 0.01 0.00 0.00 0.01 0.01 0.02 0.01 0.01 0.02 0.01 0.01 0.02 0.01 0.01 0.01 0.00 0.01 0.01 0.01 0.01 0.00 0.00 0.00 0.01 0.01 0.01 0.01 0.01 0.01 0.01 0.01 0.01 0.01 0.01 0.01 0.03 0.03 0.02 0.01 0.01 0.01 0.01
0.02 0.03 0.01 0.00 0.00 0.01 0.01 0.01 0.01 0.01 0.01 0.02 0.02 0.02 0.01 0.01 0.01 0.01 0.00 0.00 0.00 0.00 0.00 0.00 0.00 0.00 0.01 0.01 0.01 0.01 0.01 0.01 0.01 0.01 0.01 0.01 0.01 0.02 0.02 0.02 0.01 0.01 0.01 0.01
0.02 0.03 0.01 0.00 0.01 0.01 0.01 0.01 0.00 0.00 0.01 0.01 0.01 0.01 0.01 0.01 0.01 0.01 0.00 0.00 0.00 0.00 0.00 0.00 0.00 0.00 0.01 0.01 0.01 0.02 0.01 0.01 0.01 0.01 0.01 0.01 0.01 0.01 0.02 0.02 0.01 0.01 0.01 0.01
0.02 0.01 0.01 0.01 0.01 0.01 0.01 0.01 0.00 0.00 0.00 0.01 0.01 0.01 0.01 0.01 0.01 0.01 0.00 0.00 0.00 0.00 0.00 0.00 0.00 0.00 0.01 0.01 0.01 0.02 0.01 0.01 0.01 0.01 0.02 0.02 0.02 0.01 0.01 0.02 0.01 0.01 0.01 0.01
0.01 0.01 0.01 0.01 0.01 0.01 0.01 0.01 0.01 0.01 0.00 0.00 0.00 0.00 0.01 0.01 0.01 0.00 0.00 0.00 0.00 0.00 0.00 0.00 0.00 0.00 0.01 0.01 0.01 0.02 0.01 0.01 0.01 0.02 0.02 0.02 0.02 0.02 0.01 0.01 0.02 0.01 0.01 0.01
0.01 0.01 0.01 0.01 0.01 0.01 0.01 0.01 0.00 0.00 0.00 0.00 0.00 0.00 0.00 0.00 0.00 0.00 0.00 0.00 0.01 0.00 0.00 0.00 0.00 0.00 0.01 0.01 0.01 0.01 0.01 0.02 0.02 0.02 0.02 0.02 0.03 0.03 0.03 0.02 0.02 0.02 0.02 0.02
0.01 0.01 0.01 0.01 0.01 0.01 0.01 0.01 0.00 0.00 0.00 0.00 0.00 0.00 0.00 0.00 0.01 0.01 0.00 0.00 0.00 0.01 0.00 0.00 0.00 0.01 0.01 0.01 0.01 0.01 0.01 0.02 0.02 0.02 0.02 0.02 0.02 0.02 0.03 0.03 0.03 0.03 0.03 0.03
0.01 0.01 0.01 0.01 0.01 0.01 0.01 0.01 0.00 0.00 0.00 0.00 0.00 0.00 0.00 0.00 0.00 0.01 0.01 0.00 0.00 0.01 0.01 0.01 0.01 0.01 0.01 0.01 0.01 0.01 0.01 0.01 0.02 0.02 0.02 0.02 0.02 0.02 0.02 0.02 0.03 0.03 0.03 0.03
0.00 0.01 0.01 0.01 0.01 0.01 0.00 0.00 0.00 0.00 0.00 0.00 0.00 0.00 0.00 0.00 0.00 0.00 0.01 0.01 0.00 0.00 0.01 0.01 0.01 0.01 0.01 0.01 0.01 0.01 0.01 0.01 0.01 0.02 0.02 0.02 0.02 0.02 0.02 0.02 0.02 0.02 0.03 0.03
0.00 0.01 0.01 0.00 0.01 0.01 0.00 0.00 0.00 0.00 0.00 0.00 0.00 0.00 0.00 0.00 0.00 0.00 0.01 0.01 0.01 0.01 0.01 0.01 0.01 0.01 0.01 0.01 0.01 0.01 0.01 0.01 0.01 0.01 0.02 0.02 0.01 0.01 0.01 0.01 0.01 0.02 0.02 0.02
0.01 0.01 0.01 0.01 0.00 0.00 0.00 0.00 0.00 0.00 0.00 0.00 0.00 0.00 0.00 0.00 0.00 0.00 0.00 0.01 0.01 0.01 0.01 0.01 0.01 0.01 0.01 0.01 0.01 0.01 0.01 0.01 0.01 0.01 0.01 0.01 0.01 0.01 0.01 0.01 0.01 0.01 0.01 0.02
0.01 0.01 0.00 0.00 0.00 0.00 0.00 0.00 0.00 0.00 0.00 0.00 0.00 0.00 0.00 0.00 0.00 0.00 0.00 0.00 0.01 0.01 0.01 0.01 0.01 0.01 0.01 0.01 0.01 0.01 0.01 0.01 0.01 0.01 0.01 0.02 0.02 0.01 0.01 0.01 0.01 0.01 0.01 0.01
0.00 0.00 0.00 0.00 0.00 0.00 0.00 0.00 0.00 0.00 0.00 0.00 0.00 0.00 0.00 0.00 0.00 0.00 0.00 0.00 0.00 0.00 0.00 0.01 0.01 0.01 0.01 0.01 0.01 0.01 0.02 0.01 0.01 0.01 0.01 0.02 0.02 0.01 0.01 0.01 0.01 0.01 0.01 0.01
0.00 0.00 0.00 0.00 0.00 0.00 0.00 0.00 0.00 0.00 0.00 0.00 0.00 0.00 0.00 0.00 0.00 0.00 0.00 0.00 0.00 0.00 0.00 0.00 0.00 0.00 0.01 0.01 0.01 0.01 0.01 0.01 0.01 0.01 0.01 0.01 0.02 0.01 0.01 0.01 0.01 0.01 0.01 0.01
0.00 0.00 0.00 0.00 0.00 0.00 0.00 0.00 0.00 0.00 0.00 0.00 0.00 0.00 0.00 0.00 0.00 0.00 0.00 0.00 0.01 0.01 0.00 0.01 0.00 0.00 0.00 0.01 0.01 0.01 0.01 0.01 0.01 0.01 0.01 0.01 0.01 0.01 0.01 0.01 0.01 0.01 0.01 0.01
0.00 0.00 0.00 0.00 0.00 0.00 0.00 0.00 0.00 0.00 0.00 0.00 0.00 0.00 0.00 0.00 0.00 0.00 0.00 0.00 0.01 0.01 0.01 0.01 0.01 0.01 0.01 0.01 0.01 0.01 0.01 0.01 0.01 0.01 0.01 0.01 0.01 0.01 0.01 0.01 0.01 0.01 0.01 0.01
0.00 0.00 0.00 0.00 0.00 0.00 0.00 0.00 0.00 0.00 0.00 0.00 0.00 0.00 0.00 0.00 0.00 0.00 0.00 0.01 0.01 0.01 0.01 0.01 0.01 0.01 0.01 0.01 0.01 0.01 0.01 0.01 0.01 0.01 0.01 0.01 0.01 0.01 0.01 0.01 0.01 0.01 0.01 0.01
0.00 0.00 0.00 0.00 0.00 0.00 0.00 0.00 0.00 0.00 0.00 0.00 0.00 0.00 0.00 0.00 0.00 0.01 0.01 0.01 0.01 0.01 0.01 0.01 0.01 0.02 0.02 0.02 0.01 0.01 0.01 0.01 0.01 0.01 0.01 0.01 0.02 0.02 0.01 0.01 0.01 0.01 0.01 0.01
0.00 0.00 0.00 0.00 0.00 0.00 0.00 0.00 0.00 0.00 0.00 0.00 0.00 0.00 0.00 0.01 0.00 0.01 0.01 0.01 0.01 0.01 0.01 0.01 0.01 0.02 0.02 0.02 0.01 0.01 0.01 0.01 0.02 0.02 0.02 0.01 0.02 0.02 0.01 0.01 0.01 0.01 0.01 0.01
0.00 0.00 0.00 0.00 0.00 0.00 0.00 0.00 0.00 0.00 0.00 0.00 0.00 0.00 0.00 0.01 0.01 0.01 0.01 0.01 0.01 0.01 0.01 0.01 0.02 0.02 0.02 0.01 0.01 0.01 0.01 0.02 0.02 0.02 0.02 0.02 0.02 0.02 0.01 0.01 0.01 0.01 0.01 0.01
0.00 0.00 0.00 0.00 0.00 0.00 0.00 0.00 0.00 0.00 0.00 0.00 0.00 0.00 0.01 0.01 0.01 0.01 0.01 0.01 0.01 0.01 0.01 0.01 0.02 0.01 0.01 0.01 0.01 0.01 0.01 0.02 0.02 0.02 0.02 0.02 0.02 0.01 0.01 0.01 0.01 0.01 0.01 0.01
0.00 0.00 0.00 0.00 0.00 0.00 0.00 0.00 0.00 0.00 0.00 0.00 0.00 0.01 0.01 0.01 0.01 0.01 0.01 0.01 0.01 0.01 0.01 0.01 0.01 0.01 0.01 0.01 0.01 0.01 0.01 0.01 0.02 0.02 0.02 0.02 0.01 0.01 0.01 0.01 0.01 0.01 0.01 0.01
MSLP
1019.68 1019.26 1018.94 1018.74 1018.63 1018.60 1018.60 1018.60 1018.56 1018.46 1018.27 1018.00 1017.61 1017.12 1016.51 1015.78 1014.92 1013.93 1012.80 1011.57 1010.25 1008.89 1007.57 1006.34 1005.29 1004.47 1003.95 1003.76 1003.90 1004.34 1005.03 1005.90 1006.89 1007.92 1008.92 1009.85 1010.67 1011.39 1012.00 1012.54 1013.03 1013.49 1013.96 1014.44
1020.45 1020.11 1019.88 1019.76 1019.73 1019.77 1019.83 1019.88 1019.88 1019.81 1019.64 1019.35 1018.94 1018.41 1017.76 1016.98 1016.07 1015.03 1013.87 1012.61 1011.26 1009.87 1008.50 1007.22 1006.08 1005.16 1004.50 1004.16 1004.13 1004.41 1004.95 1005.70 1006.60 1007.57 1008.55 1009.49 1010.35 1011.11 1011.76 1012.33 1012.84 1013.30 1013.74 1014.18
1021.39 1021.07 1020.86 1020.76 1020.76 1020.83 1020.93 1021.01 1021.04 1020.97 1020.80 1020.49 1020.05 1019.47 1018.75 1017.91 1016.95 1015.87 1014.69 1013.41 1012.07 1010.69 1009.33 1008.04 1006.88 1005.90 1005.16 1004.71 1004.55 1004.68 1005.07 1005.70 1006.49 1007.39 1008.33 1009.27 1010.14 1010.94 1011.63 1012.24 1012.76 1013.23 1013.66 1014.07
1022.49 1022.13 1021.88 1021.75 1021.74 1021.80 1021.91 1022.00 1022.03 1021.97 1021.78 1021.44 1020.95 1020.31 1019.53 1018.62 1017.61 1016.49 1015.29 1014.03 1012.72 1011.39 1010.08 1008.83 1007.70 1006.71 1005.94 1005.41 1005.15 1005.16 1005.43 1005.93 1006.62 1007.44 1008.33 1009.25 1010.13 1010.95 1011.68 1012.32 1012.87 1013.35 1013.78 1014.18
1023.68 1023.25 1022.93 1022.75 1022.69 1022.73 1022.81 1022.89 1022.92 1022.85 1022.64 1022.27 1021.73 1021.02 1020.17 1019.20 1018.13 1016.98 1015.78 1014.53 1013.27 1012.02 1010.79 1009.62 1008.55 1007.61 1006.83 1006.28 1005.95 1005.87 1006.04 1006.44 1007.02 1007.76 1008.60 1009.49 1010.36 1011.20 1011.96 1012.63 1013.21 1013.72 1014.15 1014.55
1024.86 1024.36 1023.98 1023.74 1023.63 1023.63 1023.69 1023.76 1023.77 1023.68 1023.44 1023.03 1022.44 1021.67 1020.76 1019.73 1018.61 1017.44 1016.23 1015.02 1013.82 1012.64 1011.51 1010.44 1009.46 1008.58 1007.85 1007.30 1006.94 1006.81 1006.90 1007.21 1007.71 1008.37 1009.15 1010.00 1010.87 1011.71 1012.49 1013.19 1013.80 1014.33 1014.78 1015.18
1025.90 1025.37 1024.95 1024.68 1024.55 1024.52 1024.57 1024.62 1024.61 1024.50 1024.23 1023.78 1023.14 1022.32 1021.35 1020.26 1019.10 1017.91 1016.71 1015.54 1014.40 1013.31 1012.29 1011.32 1010.44 1009.65 1008.98 1008.46 1008.11 1007.94 1007.98 1008.22 1008.66 1009.25 1009.98 1010.79 1011.64 1012.48 1013.27 1013.99 1014.62 1015.17 1015.63 1016.03
1026.71 1026.20 1025.80 1025.54 1025.41 1025.40 1025.44 1025.48 1025.46 1025.33 1025.02 1024.53 1023.84 1022.97 1021.95 1020.82 1019.64 1018.43 1017.25 1016.12 1015.05 1014.06 1013.13 1012.28 1011.50 1010.81 1010.21 1009.74 1009.41 1009.24 1009.25 1009.45 1009.82 1010.37 1011.05 1011.82 1012.64 1013.46 1014.25 1014.97 1015.61 1016.17 1016.63 1017.03
1027.22 1026.80 1026.48 1026.29 1026.21 1026.23 1026.29 1026.33 1026.30 1026.13 1025.80 1025.26 1024.52 1023.61 1022.55 1021.40 1020.20 1019.01 1017.85 1016.77 1015.78 1014.87 1014.05 1013.30 1012.63 1012.03 1011.51 1011.10 1010.80 1010.64 1010.64 1010.81 1011.15 1011.65 1012.28 1013.01 1013.80 1014.59 1015.36 1016.07 1016.71 1017.25 1017.71 1018.10
1027.46 1027.18 1026.99 1026.91 1026.92 1027.00 1027.09 1027.14 1027.09 1026.89 1026.51 1025.93 1025.14 1024.19 1023.11 1021.95 1020.76 1019.59 1018.49 1017.47 1016.56 1015.74 1015.01 1014.37 1013.79 1013.28 1012.84 1012.49 1012.23 1012.10 1012.10 1012.25 1012.57 1013.03 1013.61 1014.30 1015.04 1015.80 1016.53 1017.21 1017.82 1018.34 1018.78 1019.14
1027.50 1027.40 1027.38 1027.44 1027.56 1027.70 1027.83 1027.87 1027.80 1027.56 1027.13 1026.50 1025.67 1024.69 1023.60 1022.44 1021.28 1020.16 1019.12 1018.18 1017.35 1016.62 1015.99 1015.44 1014.96 1014.53 1014.16 1013.87 1013.65 1013.54 1013.55 1013.70 1014.00 1014.42 1014.97 1015.60 1016.29 1017.00 1017.68 1018.32 1018.89 1019.37 1019.77 1020.10
1027.47 1027.56 1027.72 1027.92 1028.15 1028.36 1028.50 1028.54 1028.43 1028.13 1027.64 1026.95 1026.09 1025.08 1023.99 1022.86 1021.74 1020.68 1019.72 1018.86 1018.12 1017.49 1016.95 1016.49 1016.08 1015.73 1015.42 1015.18 1015.01 1014.92 1014.95 1015.10 1015.38 1015.77 1016.28 1016.87 1017.50 1018.15 1018.78 1019.36 1019.87 1020.30 1020.66 1020.95
1027.51 1027.78 1028.09 1028.42 1028.74 1028.99 1029.15 1029.16 1028.99 1028.63 1028.06 1027.32 1026.41 1025.39 1024.30 1023.20 1022.14 1021.16 1020.27 1019.51 1018.86 1018.32 1017.86 1017.47 1017.13 1016.84 1016.59 1016.39 1016.26 1016.20 1016.25 1016.40 1016.67 1017.04 1017.51 1018.06 1018.64 1019.23 1019.79 1020.31 1020.77 1021.15 1021.47 1021.72
1027.72 1028.13 1028.57 1028.99 1029.37 1029.64 1029.78 1029.74 1029.50 1029.06 1028.43 1027.62 1026.67 1025.64 1024.57 1023.51 1022.51 1021.60 1020.80 1020.12 1019.55 1019.09 1018.70 1018.37 1018.09 1017.85 1017.64 1017.49 1017.38 1017.35 1017.42 1017.58 1017.84 1018.21 1018.65 1019.16 1019.69 1020.23 1020.74 1021.21 1021.61 1021.95 1022.23 1022.44
1028.15 1028.65 1029.16 1029.65 1030.04 1030.31 1030.40 1030.30 1029.99 1029.47 1028.76 1027.90 1026.92 1025.88 1024.83 1023.81 1022.87 1022.03 1021.31 1020.70 1020.21 1019.80 1019.47 1019.19 1018.95 1018.75 1018.58 1018.45 1018.38 1018.38 1018.46 1018.64 1018.91 1019.27 1019.70 1020.18 1020.69 1021.18 1021.65 1022.08 1022.44 1022.75 1022.99 1023.18
1028.74 1029.29 1029.84 1030.33 1030.72 1030.95 1030.99 1030.82 1030.43 1029.84 1029.07 1028.17 1027.17 1026.13 1025.11 1024.13 1023.25 1022.48 1021.82 1021.27 1020.83 1020.47 1020.18 1019.93 1019.72 1019.54 1019.40 1019.30 1019.26 1019.29 1019.40 1019.60 1019.89 1020.26 1020.69 1021.16 1021.64 1022.11 1022.56 1022.95 1023.29 1023.57 1023.79 1023.97
1029.41 1029.96 1030.51 1030.98 1031.33 1031.51 1031.48 1031.25 1030.79 1030.15 1029.34 1028.41 1027.40 1026.39 1025.40 1024.47 1023.65 1022.93 1022.33 1021.83 1021.43 1021.10 1020.83 1020.61 1020.42 1020.26 1020.14 1020.06 1020.05 1020.12 1020.26 1020.49 1020.80 1021.19 1021.63 1022.10 1022.57 1023.04 1023.46 1023.84 1024.17 1024.43 1024.64 1024.81
1030.01 1030.54 1031.05 1031.47 1031.76 1031.88 1031.79 1031.50 1031.00 1030.31 1029.49 1028.56 1027.58 1026.60 1025.66 1024.80 1024.03 1023.37 1022.81 1022.36 1021.99 1021.69 1021.44 1021.23 1021.06 1020.92 1020.82 1020.78 1020.80 1020.90 1021.08 1021.34 1021.68 1022.09 1022.54 1023.02 1023.50 1023.96 1024.38 1024.75 1025.07 1025.32 1025.52 1025.68
1030.43 1030.91 1031.35 1031.71 1031.93 1031.98 1031.83 1031.49 1030.96 1030.27 1029.46 1028.56 1027.63 1026.71 1025.84 1025.05 1024.35 1023.75 1023.25 1022.84 1022.51 1022.24 1022.01 1021.82 1021.67 1021.56 1021.49 1021.48 1021.54 1021.67 1021.89 1022.19 1022.55 1022.98 1023.45 1023.93 1024.41 1024.87 1025.29 1025.65 1025.95 1026.20 1026.39 1026.52
1030.60 1031.00 1031.36 1031.64 1031.78 1031.76 1031.56 1031.19 1030.65 1029.97 1029.20 1028.36 1027.51 1026.67 1025.89 1025.19 1024.58 1024.06 1023.62 1023.27 1022.98 1022.75 1022.56 1022.40 1022.28 1022.20 1022.17 1022.20 1022.30 1022.47 1022.72 1023.04 1023.43 1023.87 1024.34 1024.82 1025.30 1025.74 1026.15 1026.50 1026.78 1027.01 1027.17 1027.28
1030.50 1030.81 1031.08 1031.27 1031.32 1031.23 1030.99 1030.59 1030.06 1029.42 1028.70 1027.95 1027.19 1026.47 1025.80 1025.21 1024.70 1024.27 1023.92 1023.64 1023.41 1023.23 1023.09 1022.98 1022.91 1022.88 1022.89 1022.96 1023.10 1023.30 1023.58 1023.92 1024.31 1024.75 1025.21 1025.67 1026.13 1026.55 1026.93 1027.25 1027.52 1027.71 1027.84 1027.90
1030.19 1030.41 1030.58 1030.66 1030.63 1030.47 1030.18 1029.77 1029.26 1028.66 1028.02 1027.37 1026.73 1026.13 1025.59 1025.13 1024.74 1024.42 1024.17 1023.97 1023.83 1023.72 1023.64 1023.59 1023.58 1023.59 1023.66 1023.77 1023.94 1024.17 1024.46 1024.80 1025.18 1025.60 1026.04 1026.47 1026.89 1027.27 1027.61 1027.90 1028.12 1028.28 1028.37 1028.38
1029.76 1029.89 1029.95 1029.93 1029.81 1029.58 1029.26 1028.84 1028.35 1027.82 1027.26 1026.72 1026.20 1025.74 1025.34 1025.01 1024.75 1024.55 1024.41 1024.31 1024.26 1024.23 1024.22 1024.24 1024.28 1024.35 1024.46 1024.61 1024.81 1025.05 1025.34 1025.67 1026.03 1026.41 1026.81 1027.19 1027.56 1027.90 1028.19 1028.43 1028.60 1028.72 1028.76 1028.73
1029.32 1029.34 1029.31 1029.19 1028.99 1028.70 1028.34 1027.93 1027.47 1027.01 1026.54 1026.11 1025.72 1025.40 1025.14 1024.94 1024.81 1024.73 1024.70 1024.70 1024.73 1024.78 1024.85 1024.93 1025.03 1025.15 1025.29 1025.47 1025.68 1025.92 1026.20 1026.50 1026.83 1027.17 1027.51 1027.84 1028.15 1028.43 1028.67 1028.85 1028.99 1029.05 1029.05 1028.98
1028.93 1028.86 1028.73 1028.53 1028.26 1027.93 1027.55 1027.15 1026.74 1026.34 1025.97 1025.65 1025.39 1025.20 1025.07 1025.00 1024.99 1025.02 1025.09 1025.18 1025.29 1025.41 1025.53 1025.66 1025.80 1025.95 1026.12 1026.31 1026.52 1026.76 1027.01 1027.29 1027.58 1027.87 1028.15 1028.43 1028.68 1028.90 1029.08 1029.21 1029.30 1029.32 1029.28 1029.17
1028.62 1028.48 1028.27 1028.00 1027.69 1027.33 1026.96 1026.58 1026.22 1025.90 1025.63 1025.42 1025.27 1025.20 1025.19 1025.23 1025.32 1025.45 1025.59 1025.76 1025.92 1026.09 1026.25 1026.41 1026.58 1026.74 1026.92 1027.11 1027.31 1027.53 1027.76 1028.00 1028.25 1028.49 1028.73 1028.95 1029.15 1029.32 1029.45 1029.54 1029.58 1029.57 1029.50 1029.36
1028.39 1028.18 1027.92 1027.62 1027.28 1026.92 1026.57 1026.24 1025.94 1025.70 1025.52 1025.42 1025.38 1025.41 1025.50 1025.64 1025.81 1026.00 1026.20 1026.41 1026.61 1026.80 1026.98 1027.15 1027.32 1027.49 1027.66 1027.84 1028.03 1028.23 1028.43 1028.64 1028.86 1029.06 1029.26 1029.44 1029.60 1029.72 1029.82 1029.87 1029.87 1029.83 1029.74 1029.58
Thickness
5433 5437 5436 5437 5441 5440 5437 5438 5440 5447 5448 5457 5454 5450 5448 5448 5450 5453 5454 5455 5456 5457 5457 5459 5461 5463 5465 5468 5471 5473 5476 5479 5481 5484 5486 5488 5490 5493 5494 5496 5498 5499 5500 5501
5429 5432 5429 5431 5434 5433 5433 5434 5435 5438 5443 5448 5445 5441 5440 5440 5443 5445 5445 5446 5448 5449 5450 5451 5453 5454 5456 5459 5462 5464 5466 5469 5472 5474 5476 5479 5480 5482 5484 5486 5487 5488 5489 5490
5422 5420 5428 5428 5431 5430 5429 5429 5432 5435 5441 5438 5435 5436 5434 5434 5436 5436 5437 5438 5439 5440 5441 5442 5444 5445 5447 5449 5452 5455 5457 5459 5461 5464 5466 5468 5470 5472 5474 5475 5477 5478 5479 5480
5408 5413 5419 5437 5432 5430 5427 5426 5426 5429 5431 5430 5429 5428 5427 5427 5427 5428 5430 5430 5430 5430 5432 5433 5435 5437 5438 5440 5443 5445 5447 5449 5451 5454 5456 5458 5460 5462 5464 5465 5466 5467 5469 5470
5394 5398 5410 5428 5427 5421 5421 5424 5424 5423 5424 5421 5419 5420 5421 5421 5421 5421 5421 5421 5421 5422 5422 5424 5425 5427 5429 5431 5433 5436 5438 5440 5442 5444 5446 5448 5450 5451 5453 5454 5455 5456 5458 5460
5388 5398 5410 5428 5420 5416 5418 5419 5421 5417 5416 5413 5413 5414 5417 5415 5413 5412 5412 5412 5413 5413 5413 5414 5416 5418 5419 5421 5423 5425 5427 5429 5432 5434 5436 5438 5439 5440 5442 5444 5445 5447 5448 5450
5383 5387 5402 5412 5410 5413 5412 5419 5415 5411 5409 5406 5405 5407 5407 5406 5404 5403 5403 5403 5404 5404 5404 5405 5406 5408 5409 5410 5412 5414 5417 5419 5422 5423 5425 5427 5429 5430 5431 5433 5435 5436 5437 5439
5375 5383 5401 5406 5403 5404 5408 5407 5404 5403 5401 5399 5397 5397 5396 5396 5395 5395 5394 5394 5395 5395 5395 5396 5397 5398 5399 5400 5402 5405 5407 5409 5411 5413 5415 5418 5419 5419 5421 5422 5424 5425 5427 5429
5386 5399 5402 5398 5399 5400 5397 5396 5395 5394 5393 5391 5390 5388 5388 5387 5386 5386 5385 5385 5385 5385 5385 5386 5387 5388 5389 5391 5393 5395 5397 5398 5400 5402 5405 5407 5408 5409 5411 5412 5413 5415 5416 5418
5379 5391 5393 5390 5389 5389 5388 5388 5387 5385 5384 5383 5381 5380 5379 5379 5378 5376 5376 5375 5375 5375 5376 5377 5378 5379 5380 5382 5384 5385 5387 5388 5390 5392 5394 5396 5398 5400 5401 5402 5403 5405 5406 5408
5377 5384 5384 5387 5384 5383 5381 5379 5377 5376 5375 5374 5373 5372 5370 5369 5368 5367 5367 5366 5365 5365 5366 5367 5369 5371 5372 5373 5374 5375 5376 5378 5380 5382 5383 5385 5388 5390 5392 5393 5394 5396 5398 5399
5386 5385 5380 5383 5381 5377 5374 5373 5370 5368 5367 5365 5364 5363 5362 5360 5359 5358 5357 5357 5356 5357 5357 5358 5360 5361 5363 5364 5365 5365 5367 5368 5370 5371 5373 5375 5378 5380 5382 5384 5386 5388 5389 5390
5382 5379 5375 5375 5373 5371 5368 5367 5364 5361 5359 5357 5355 5354 5353 5351 5350 5349 5349 5348 5348 5349 5349 5349 5351 5352 5353 5355 5356 5356 5357 5359 5360 5362 5363 5365 5368 5370 5372 5375 5376 5378 5380 5382
5372 5369 5368 5367 5365 5363 5361 5359 5355 5353 5351 5349 5347 5345 5344 5343 5342 5341 5341 5340 5341 5341 5341 5341 5342 5343 5345 5346 5347 5348 5348 5350 5351 5352 5354 5355 5358 5360 5362 5364 5366 5367 5369 5372
5364 5362 5361 5360 5357 5354 5352 5349 5346 5344 5342 5341 5339 5337 5335 5334 5334 5333 5333 5333 5333 5332 5333 5333 5334 5335 5336 5337 5338 5339 5340 5341 5342 5343 5345 5347 5349 5351 5352 5354 5356 5357 5359 5361
5357 5354 5352 5350 5348 5346 5342 5340 5338 5337 5334 5332 5330 5329 5327 5326 5325 5325 5324 5324 5323 5324 5324 5324 5325 5326 5328 5329 5329 5330 5330 5333 5334 5335 5337 5339 5340 5342 5343 5345 5346 5348 5350 5351
5350 5348 5344 5342 5341 5338 5335 5333 5331 5329 5326 5324 5322 5320 5319 5317 5316 5316 5316 5315 5315 5315 5315 5316 5317 5318 5319 5320 5320 5321 5321 5323 5325 5326 5328 5329 5331 5333 5334 5336 5337 5339 5341 5343
5347 5346 5342 5338 5335 5331 5328 5325 5323 5320 5318 5316 5314 5311 5310 5308 5307 5307 5307 5306 5306 5306 5307 5307 5308 5309 5310 5311 5312 5312 5313 5314 5315 5317 5318 5320 5322 5324 5325 5327 5329 5331 5333 5335
5339 5336 5334 5331 5328 5325 5321 5318 5315 5312 5310 5308 5305 5303 5301 5300 5300 5299 5298 5297 5297 5298 5299 5300 5302 5302 5302 5302 5304 5304 5304 5305 5306 5307 5309 5312 5313 5314 5316 5318 5320 5322 5324 5327
5332 5329 5326 5323 5320 5316 5313 5310 5306 5303 5301 5299 5297 5295 5293 5293 5291 5291 5290 5290 5291 5292 5293 5293 5294 5294 5294 5295 5296 5296 5296 5297 5297 5298 5300 5301 5303 5305 5307 5309 5311 5313 5316 5318
5324 5321 5318 5314 5311 5308 5305 5301 5297 5294 5293 5291 5289 5288 5286 5285 5284 5283 5283 5284 5285 5286 5286 5287 5287 5287 5287 5288 5289 5288 5288 5289 5289 5290 5291 5292 5294 5296 5298 5300 5303 5305 5308 5310
5316 5312 5309 5305 5301 5298 5296 5292 5289 5287 5285 5283 5282 5281 5279 5279 5278 5277 5277 5278 5280 5280 5281 5280 5280 5281 5282 5282 5281 5281 5281 5281 5282 5282 5283 5284 5285 5287 5290 5292 5295 5298 5300 5302
5308 5305 5301 5297 5294 5290 5287 5284 5282 5280 5278 5277 5276 5274 5274 5273 5272 5272 5272 5273 5274 5275 5275 5274 5275 5276 5276 5275 5274 5274 5274 5274 5275 5275 5276 5276 5278 5280 5282 5284 5287 5290 5292 5295
5301 5298 5293 5289 5285 5281 5279 5278 5276 5275 5273 5271 5270 5269 5268 5267 5267 5267 5267 5268 5269 5269 5268 5268 5269 5270 5270 5268 5267 5267 5267 5267 5267 5268 5269 5270 5271 5273 5275 5277 5280 5283 5285 5288
5294 5289 5285 5281 5278 5277 5276 5273 5270 5268 5266 5265 5264 5264 5263 5263 5262 5262 5261 5261 5262 5262 5261 5261 5262 5262 5261 5259 5259 5259 5259 5260 5260 5261 5262 5264 5265 5267 5269 5271 5273 5276 5279 5282
5285 5282 5279 5276 5275 5273 5270 5268 5265 5263 5262 5260 5260 5259 5258 5257 5257 5256 5255 5255 5254 5255 5254 5253 5253 5253 5252 5252 5251 5251 5252 5253 5253 5255 5256 5257 5259 5260 5263 5265 5268 5270 5273 5276
5277 5274 5271 5270 5268 5267 5265 5263 5261 5259 5257 5256 5255 5254 5253 5252 5251 5250 5249 5249 5248 5247 5247 5247 5246 5246 5246 5246 5245 5245 5246 5246 5247 5248 5250 5251 5253 5255 5257 5259 5262 5265 5267 5270